Theta_e
303 303 303 303 304 304 305 305 305 304 303 305 305 308 303 302 298 306 309 314 309 303 295 298 294 293 295 299 296 298 297 295 297 296 298 295 297 297 295 295 294 295 294 294 294 295 294 295 295 298 299 299 300 300 301 301 299 299 296 296 297 307 291 290 291 295 295 297 297 298 297 297 296 297 298 298 295 296 294 292 294 290 291 288 288 285 290
303 303 303 303 304 304 304 305 305 304 303 303 306 305 301 302 301 302 308 314 309 300 289 289 290 293 297 297 295 298 296 296 295 294 296 295 296 294 295 296 296 295 297 296 292 296 289 295 295 296 298 298 301 301 301 302 298 300 295 295 301 291 295 293 289 288 291 292 295 295 297 297 296 296 298 297 297 297 299 297 298 289 292 290 288 283 291
302 303 303 303 304 304 304 305 305 304 303 304 305 302 301 302 305 303 305 309 307 296 297 294 292 293 293 294 292 294 295 297 298 297 295 298 297 296 295 297 298 295 297 296 297 296 294 296 297 298 298 298 300 301 302 303 301 302 301 302 301 293 290 290 286 283 281 281 282 285 288 292 296 295 294 294 295 297 295 289 291 286 291 292 288 287 294
302 303 303 303 304 304 304 304 304 303 303 302 307 303 304 298 290 297 302 304 302 300 301 298 295 292 293 290 293 294 293 296 297 298 296 297 296 296 296 296 297 296 296 295 294 294 297 294 297 296 296 297 299 301 303 302 302 303 305 302 300 292 294 293 290 288 287 287 290 292 292 294 291 292 294 294 295 297 298 296 290 287 292 290 292 294 293
302 303 303 303 303 304 304 304 304 303 302 303 304 305 303 300 293 292 290 299 299 297 298 296 297 293 297 288 293 291 293 294 295 298 295 296 296 295 295 294 294 295 295 295 295 295 294 296 296 295 296 297 298 300 303 304 304 305 303 304 299 294 288 289 291 291 292 293 292 293 294 293 292 292 293 294 295 296 297 291 290 298 293 287 297 299 296
302 302 303 303 303 304 304 304 304 302 302 302 308 299 301 293 295 298 298 292 288 291 291 294 293 295 296 292 294 291 291 292 290 295 296 296 297 295 294 294 293 294 296 297 292 294 295 296 291 296 296 296 298 297 299 299 301 302 301 304 300 294 287 290 291 289 292 293 294 295 293 293 293 293 294 294 296 297 294 291 294 298 291 288 297 300 295
302 302 303 303 303 304 304 304 304 302 301 304 308 298 299 299 297 297 300 293 293 292 291 294 293 290 293 291 293 291 291 289 290 291 294 294 293 295 287 291 292 294 295 296 294 295 291 288 295 295 296 297 297 295 296 298 300 301 300 300 304 297 291 292 292 289 290 291 292 294 293 292 292 292 293 294 295 295 296 295 297 298 297 298 298 296 293
302 302 302 303 303 304 304 304 304 302 300 307 303 300 297 294 295 293 299 298 295 293 290 292 293 288 291 287 290 290 291 289 290 291 292 289 292 295 292 291 293 294 294 295 293 292 294 295 289 294 297 295 297 297 297 296 298 300 298 298 300 299 291 293 293 290 289 291 292 293 292 292 291 292 293 294 294 294 295 295 295 297 297 297 296 293 290
301 302 302 303 303 304 304 304 304 302 301 304 301 298 300 300 301 299 295 291 292 293 291 291 290 287 287 287 289 291 290 289 291 290 293 291 290 291 291 292 293 294 293 293 291 292 293 294 294 295 295 292 294 295 294 295 295 296 297 298 298 298 292 295 294 288 287 290 290 290 292 291 290 290 292 293 293 290 291 289 291 294 293 295 294 291 289
301 302 302 303 303 304 304 304 304 303 302 304 301 296 303 303 301 300 298 289 291 292 292 292 291 284 286 286 286 288 290 292 292 286 292 293 293 293 293 293 295 293 293 291 291 293 294 294 295 295 296 297 297 297 296 295 296 296 297 299 296 297 292 290 291 287 288 291 290 291 291 290 285 287 292 291 291 290 289 290 291 291 293 293 289 290 295
301 301 302 303 303 303 304 304 304 303 304 299 300 298 300 298 297 299 297 289 289 291 290 287 287 286 289 289 287 291 290 292 293 288 286 293 292 295 295 294 293 291 290 292 295 295 295 296 296 297 296 296 297 297 297 297 297 296 297 297 297 298 296 292 295 287 288 289 291 291 287 280 283 289 289 293 291 289 288 287 289 291 293 290 293 293 295
301 301 302 302 303 303 304 304 304 304 302 303 304 301 300 301 301 299 293 287 287 292 288 285 286 289 289 289 289 287 287 289 291 293 288 290 292 294 293 293 294 287 293 298 297 297 296 297 296 297 297 297 297 297 297 296 296 298 298 297 295 294 295 293 296 289 287 289 289 285 279 283 289 293 294 294 294 293 289 288 290 291 292 292 292 292 293
301 301 301 302 303 303 304 304 304 304 303 305 303 299 302 303 300 296 293 290 286 288 286 287 290 290 291 291 291 290 290 290 290 291 291 290 290 291 292 290 290 292 297 296 297 295 293 293 293 294 294 295 295 296 295 295 295 297 298 298 297 292 292 291 287 290 290 287 286 278 281 285 289 291 294 296 295 294 293 289 291 292 293 293 292 291 291
300 301 301 302 302 303 303 304 304 304 304 304 302 301 303 303 301 297 294 289 286 290 291 289 289 289 290 290 291 291 292 291 291 292 289 291 290 290 292 293 294 297 297 297 297 296 292 292 289 289 290 292 293 292 293 294 294 294 295 296 298 297 296 292 288 290 284 286 286 284 287 287 286 286 288 291 289 291 291 285 287 292 294 294 292 292 292
300 301 301 301 302 303 303 304 304 304 304 303 305 304 302 302 302 300 298 294 286 288 290 284 287 289 290 290 291 291 291 292 292 291 292 294 291 292 293 294 297 297 299 297 294 294 290 289 286 285 288 287 283 285 292 290 292 294 295 295 296 298 291 292 289 284 288 287 285 283 282 281 284 289 291 292 292 292 293 291 285 292 293 295 293 292 292
300 300 301 301 302 302 303 304 304 304 304 304 306 304 303 303 303 303 298 294 292 283 287 291 292 291 290 289 291 290 288 289 290 292 292 292 291 293 295 297 299 299 298 295 293 291 289 286 284 284 283 285 288 286 284 290 288 292 294 294 295 295 296 292 290 286 286 285 283 282 280 281 287 290 291 293 292 293 293 290 284 289 292 294 294 292 293
300 300 300 301 302 302 303 303 304 304 304 303 303 303 301 305 303 302 297 294 292 285 292 293 294 295 291 289 291 289 291 287 289 287 287 287 290 292 294 296 300 298 295 295 293 290 287 286 289 288 287 287 285 284 288 287 286 287 291 293 292 292 291 290 287 285 286 285 283 282 284 282 287 290 291 291 295 292 291 281 282 288 291 292 293 292 292
300 300 300 301 301 302 302 303 304 304 304 304 304 302 302 305 306 306 299 294 289 288 292 294 292 289 287 289 288 290 292 291 291 292 289 290 290 290 291 293 292 296 298 290 291 287 286 286 284 284 284 288 288 288 281 286 283 283 285 287 287 287 287 288 285 286 284 283 284 285 284 286 288 289 291 291 292 291 283 280 285 291 292 292 293 293 293
299 300 300 301 301 301 302 303 303 304 304 303 305 306 302 304 306 308 300 295 292 286 292 295 295 293 294 295 294 293 291 292 291 288 287 288 289 292 292 291 293 289 294 289 290 286 285 284 289 287 285 286 288 282 288 283 282 287 287 285 285 285 285 286 287 285 284 285 282 283 285 287 291 292 292 293 290 282 283 287 293 293 292 294 294 293 294
299 300 300 300 301 301 302 303 303 304 304 304 303 301 301 306 306 305 299 292 293 291 292 293 294 291 294 292 290 290 291 291 291 289 287 284 292 293 292 287 292 293 291 292 285 288 285 283 285 288 285 286 287 289 285 284 287 285 286 287 285 284 283 284 284 285 284 285 282 280 278 285 291 292 291 292 286 285 289 292 293 294 293 294 294 294 294
299 300 300 300 301 301 302 303 303 304 304 304 302 303 301 306 307 307 305 302 294 289 290 296 296 294 294 293 295 294 292 289 290 289 291 290 293 292 283 281 287 289 285 287 283 284 286 284 287 285 288 287 287 288 283 283 285 289 288 287 287 289 284 284 284 286 282 282 280 280 285 288 293 291 286 289 291 293 294 293 291 294 295 294 294 294 295
299 299 300 300 301 301 302 303 303 303 304 304 302 305 299 303 307 305 304 305 295 290 293 296 297 297 297 298 298 298 296 295 295 296 293 290 293 292 290 291 290 290 291 292 289 287 290 288 290 286 285 286 290 285 287 283 282 286 290 290 282 289 287 287 284 287 284 283 284 286 290 292 294 294 292 294 295 296 296 295 294 293 294 296 294 293 294
299 299 300 300 301 301 302 302 303 303 304 303 302 303 298 302 303 307 306 296 298 299 300 298 298 298 299 298 299 299 300 300 301 300 296 293 289 291 291 291 289 293 294 294 289 290 289 289 285 290 287 288 285 285 286 287 284 286 283 288 288 290 290 293 290 285 289 290 290 291 291 292 293 294 295 294 294 296 296 295 293 294 294 295 293 293 293
299 299 299 300 301 301 302 302 302 303 303 303 302 302 300 302 303 305 300 298 294 290 293 297 294 289 292 293 296 299 299 298 300 300 302 301 289 289 293 293 294 296 293 294 291 291 289 288 288 290 284 287 289 285 282 282 283 287 286 285 288 290 290 290 286 289 287 281 290 289 289 291 292 291 293 294 294 293 293 292 292 292 292 292 292 292 291
299 299 299 300 300 301 301 302 302 303 303 303 303 304 304 302 303 302 301 290 290 291 285 288 290 294 296 298 299 297 297 299 301 302 301 298 295 290 288 293 297 293 291 294 296 294 291 287 288 287 282 288 289 283 287 285 283 289 284 286 287 286 293 288 288 287 285 285 289 291 292 292 293 292 290 290 290 291 292 291 291 291 291 291 291 291 290
300 300 299 300 300 301 302 302 302 302 302 302 302 302 299 298 303 306 304 300 298 292 287 286 290 297 298 296 294 295 298 298 298 298 298 297 297 299 296 298 297 300 297 296 296 291 289 288 288 287 285 284 292 286 285 287 287 289 287 286 290 289 291 284 288 286 288 290 291 291 292 292 292 293 294 293 293 292 292 293 293 293 292 292 292 292 292
300 300 300 300 301 301 302 302 302 302 302 302 303 303 302 302 303 300 298 298 294 287 289 286 291 293 295 294 296 298 297 298 299 298 297 296 296 297 299 296 294 295 295 293 293 290 289 288 287 285 288 286 291 289 289 288 288 285 285 288 291 289 286 288 287 284 284 284 287 290 284 284 289 291 293 294 294 294 293 293 293 293 292 292 292 292 292
300 300 300 300 301 301 302 302 302 302 302 302 302 304 304 302 302 303 302 301 298 289 288 288 289 292 297 294 296 297 297 297 297 297 296 296 296 296 295 294 294 293 292 291 287 287 287 286 283 287 288 289 287 285 290 289 289 288 287 288 290 288 288 288 285 284 283 289 290 292 291 291 292 293 294 294 295 294 293 292 292 293 293 293 292 291 291
300 300 300 300 301 301 302 302 302 302 301 302 304 303 303 303 305 304 304 304 303 298 292 292 294 294 288 291 298 297 298 299 298 297 297 295 295 296 295 294 293 293 293 290 289 288 287 286 289 288 286 290 288 284 287 282 283 281 286 290 291 292 293 291 290 289 290 292 292 293 292 290 292 294 294 294 295 294 293 293 293 293 293 292 292 291 291
300 300 300 301 301 301 301 302 302 302 301 304 303 299 296 297 302 303 303 304 302 300 291 287 285 287 296 295 295 295 295 297 297 298 297 295 295 294 294 294 293 294 292 288 288 285 287 287 288 292 292 295 287 285 282 284 282 286 289 290 291 291 291 292 293 291 289 293 294 293 292 293 295 295 295 295 295 294 293 292 292 292 292 292 291 291 291
300 300 300 301 301 301 301 302 302 301 301 302 299 291 290 288 298 305 302 304 304 300 292 291 287 291 291 295 296 294 294 295 296 296 296 296 295 294 295 296 295 293 289 289 288 287 288 286 287 288 292 291 288 284 282 282 281 284 288 290 291 290 290 291 293 293 293 294 294 294 293 293 294 293 293 294 294 294 293 292 292 291 292 291 291 291 291
300 300 300 301 301 301 301 302 301 301 305 304 298 296 296 297 301 303 303 303 303 301 291 287 286 287 287 291 295 296 295 295 296 297 295 297 294 295 295 294 291 294 290 288 288 287 286 286 286 288 288 290 288 285 285 283 280 283 289 290 291 292 292 292 292 293 293 294 293 291 290 291 292 291 289 293 293 293 293 292 292 293 290 291 291 291 291
300 301 301 300 301 301 301 301 301 303 304 301 299 300 301 301 301 302 302 304 303 297 296 289 285 286 286 289 295 295 295 297 294 295 292 295 293 294 291 295 294 293 293 290 286 285 288 287 287 286 289 293 285 284 283 282 283 288 289 290 291 292 292 293 293 293 293 294 294 289 288 289 291 293 293 293 293 292 292 291 292 292 291 290 290 290 291
300 301 301 300 300 301 301 302 301 299 300 302 299 300 303 301 303 301 303 304 300 298 294 288 284 284 285 293 289 292 296 291 291 292 288 294 294 294 290 292 292 287 290 288 289 288 289 288 286 286 289 286 286 284 280 283 287 288 289 291 292 292 293 292 292 292 293 293 293 293 293 293 294 294 293 292 292 293 293 292 292 290 289 289 289 290 290
300 300 300 300 300 301 301 301 302 301 299 299 299 302 302 301 300 300 302 299 289 288 288 287 289 284 284 285 285 289 296 293 288 291 288 291 295 291 291 287 289 286 287 293 287 287 286 286 289 284 283 287 283 279 281 285 287 288 289 290 292 292 291 290 291 292 293 293 293 293 293 293 292 291 290 291 291 291 291 291 291 290 288 289 289 290 290
300 300 299 299 300 301 302 301 302 299 297 297 298 301 300 302 301 304 305 304 298 288 287 287 288 285 286 282 282 287 295 291 293 294 291 290 291 293 292 288 284 286 291 288 284 288 285 290 286 282 286 281 280 283 285 288 287 288 289 289 291 291 291 291 291 292 293 293 293 293 293 292 291 290 291 291 291 291 291 290 290 290 289 289 289 290 290
299 299 298 298 302 302 297 295 299 300 298 300 300 300 300 301 304 304 303 300 302 300 291 287 286 286 287 285 288 289 293 285 291 289 291 288 286 288 288 286 283 286 286 285 285 284 287 291 285 281 282 280 283 287 289 289 288 288 289 290 292 292 292 292 293 293 292 292 292 292 292 291 290 291 290 290 290 291 290 289 289 288 288 288 289 289 290
298 298 302 301 298 292 291 294 298 300 299 299 299 299 299 298 292 293 293 292 295 295 292 291 286 287 291 289 284 292 293 288 292 287 287 289 286 285 288 285 284 284 280 282 284 290 287 285 283 281 282 287 288 288 289 289 290 290 292 292 292 293 293 294 293 292 290 289 289 290 290 290 290 290 290 290 290 289 289 290 290 291 290 290 290 290 290
299 300 298 297 295 290 291 296 301 298 300 301 300 294 290 292 290 287 287 290 291 289 291 290 287 291 290 288 289 294 291 287 287 288 284 289 285 282 287 281 285 284 281 282 283 289 281 282 282 282 281 285 286 288 290 291 292 293 293 293 294 294 294 294 294 292 291 289 290 291 291 289 289 289 291 290 290 291 291 290 290 291 290 290 290 290 290
299 295 291 292 291 293 299 301 298 299 299 293 293 291 286 289 286 283 289 286 285 288 290 286 291 291 291 288 288 287 294 291 285 285 286 287 291 283 285 285 285 282 277 278 281 288 281 277 281 280 281 285 286 289 290 291 291 293 293 292 294 295 295 294 294 294 293 293 293 293 293 293 293 291 291 291 290 288 289 290 290 291 291 291 289 289 288
297 296 295 291 295 298 299 301 302 299 293 289 288 287 286 283 286 286 286 284 283 284 290 289 291 290 291 292 291 286 294 296 293 292 289 285 290 289 284 280 285 280 278 278 284 284 283 280 280 279 282 286 287 289 290 290 292 292 292 293 294 295 295 295 295 294 293 293 293 293 293 293 293 293 292 292 291 289 287 287 288 291 291 290 290 290 291
296 295 296 298 297 298 299 297 294 290 288 289 284 280 283 284 287 286 287 282 282 286 288 288 286 287 288 290 290 291 291 295 291 288 287 283 287 285 282 283 283 278 276 283 285 283 281 276 277 279 284 287 289 289 290 289 291 292 292 293 294 295 295 294 294 294 294 293 293 294 293 292 293 293 293 292 292 291 289 290 289 290 291 292 291 291 291
297 297 298 296 295 292 292 288 288 288 281 281 280 278 283 280 282 283 283 287 288 288 288 294 291 292 292 293 291 293 290 294 289 288 286 283 287 286 282 281 279 276 280 286 283 280 277 277 277 281 287 288 289 288 290 290 291 291 293 294 295 295 295 294 293 293 294 294 294 294 293 292 293 293 293 293 292 292 292 291 291 291 292 292 292 291 291
298 297 294 291 289 288 289 279 287 285 281 282 280 276 279 279 282 284 283 285 288 287 290 288 289 289 285 292 289 288 289 291 290 289 287 287 284 281 280 277 279 284 287 282 280 277 278 280 282 284 287 288 289 288 290 290 290 291 292 293 294 295 295 294 294 293 293 294 294 294 294 293 293 293 293 293 293 292 292 292 292 291 292 292 292 291 291
292 288 288 287 285 286 284 277 287 283 278 280 283 282 282 280 282 285 284 287 290 288 291 292 291 290 287 292 292 290 289 286 291 285 282 285 282 282 279 279 283 284 280 277 279 280 279 278 284 286 287 286 286 289 290 291 291 291 292 293 293 293 293 293 293 293 293 293 293 293 292 292 292 292 292 292 293 293 293 292 292 292 292 292 292 291 292
288 287 286 281 276 282 283 279 281 279 283 285 284 286 286 287 287 287 290 291 290 291 290 290 291 290 288 291 286 286 289 288 285 285 286 285 280 278 284 286 284 278 277 278 275 275 277 281 284 285 287 287 287 288 290 291 292 292 291 291 292 293 293 293 293 293 293 293 293 293 292 293 293 292 291 293 293 293 293 293 293 293 293 292 292 292 292
288 288 287 286 281 283 286 280 282 285 286 287 289 289 288 289 290 290 291 291 290 292 291 292 290 290 286 287 287 288 288 288 283 285 286 280 279 282 285 280 275 277 274 273 275 277 280 283 285 286 286 287 287 290 290 291 291 291 291 292 293 293 293 293 293 293 293 294 293 293 293 293 293 294 294 293 293 293 293 293 293 293 293 292 293 293 292
286 288 287 279 278 283 281 284 289 288 290 290 289 290 290 291 290 289 291 292 292 292 291 290 287 289 288 291 289 285 286 287 282 284 285 282 284 280 278 277 276 278 279 277 278 282 283 285 286 286 287 290 289 290 290 290 291 291 292 292 292 294 294 293 293 293 293 293 293 293 293 293 294 294 293 293 293 293 293 293 293 294 293 293 293 293 292
289 287 284 283 284 285 285 287 288 286 287 289 289 290 289 289 289 290 291 293 291 291 291 289 287 287 284 287 285 284 281 285 279 280 284 282 277 274 274 273 275 274 280 282 282 284 285 287 288 287 289 289 290 290 290 291 291 291 292 292 292 293 294 294 294 293 293 294 294 293 293 293 294 294 294 294 293 293 294 294 294 294 293 293 293 293 292
287 286 287 286 285 286 288 289 288 285 287 288 288 288 289 289 289 291 293 291 292 291 291 289 289 286 285 285 281 283 282 285 283 283 280 277 278 279 278 274 277 277 279 283 284 285 287 287 288 288 289 289 290 290 290 290 289 291 292 293 293 293 294 294 294 294 294 294 294 294 294 294 293 293 293 293 294 294 295 294 294 293 293 294 294 293 292
290 288 287 290 286 285 286 282 284 284 285 286 288 288 289 288 289 290 293 292 292 290 288 285 286 285 283 282 280 276 279 285 282 280 279 278 282 280 277 276 279 282 283 286 287 288 288 289 288 288 288 289 290 290 290 290 291 292 292 293 293 293 293 294 294 294 294 294 295 291 294 294 294 294 295 295 294 294 294 293 293 293 293 294 294 294 293
287 285 286 288 290 289 290 290 289 288 289 290 290 290 291 289 291 292 293 291 290 286 284 287 285 283 281 278 280 284 286 283 279 280 277 281 283 279 279 281 283 285 285 286 287 288 288 289 288 288 289 289 290 291 291 291 291 291 292 292 292 292 292 292 292 293 293 294 294 294 294 295 295 295 295 295 294 293 292 292 293 294 293 294 294 294 294
Wind_Speed
23 23 26 27 27 27 26 26 25 23 23 9 6 5 2 5 4 3 7 1 6 6 4 2 3 7 3 4 4 5 3 8 3 4 6 8 7 6 6 7 6 8 8 4 6 5 6 5 8 5 10 5 4 6 7 10 6 2 3 3 1 2 2 5 10 2 4 5 2 0 1 2 6 6 2 5 11 10 11 10 4 7 5 7 6 6 3
23 23 25 28 28 27 27 26 25 22 18 8 7 5 2 2 4 3 7 2 4 5 2 2 3 5 2 5 5 4 6 5 8 9 4 5 4 6 5 5 7 4 1 5 7 1 5 4 6 5 6 4 4 3 0 8 5 1 2 1 3 2 0 5 6 8 8 6 7 6 3 5 6 5 2 3 2 1 1 1 2 7 9 11 8 9 3
23 23 24 26 28 27 27 27 25 23 19 10 4 4 2 2 2 1 5 7 2 2 4 4 3 4 5 5 7 4 8 1 5 5 1 1 2 3 4 3 2 5 3 5 4 3 6 2 1 4 2 5 4 3 2 5 8 7 10 8 5 4 3 4 9 11 11 11 11 9 8 9 4 3 2 1 3 4 6 8 7 9 7 12 7 3 6
22 23 24 26 27 27 27 26 27 25 20 13 5 3 4 4 2 3 3 5 5 6 2 4 5 4 5 3 2 3 5 5 3 1 4 4 3 3 3 1 2 5 5 7 7 6 4 5 0 6 5 7 4 4 2 4 9 13 16 12 8 2 2 5 4 5 5 7 7 5 3 4 4 6 3 2 0 3 5 6 8 10 6 8 9 3 11
22 22 24 26 27 26 26 26 27 26 23 12 4 3 3 2 4 4 5 2 6 5 6 7 5 2 4 2 3 1 2 3 4 4 2 4 2 3 4 2 5 4 7 6 4 3 2 4 3 2 3 4 5 5 8 11 12 12 10 13 8 4 1 3 6 6 5 6 8 8 3 5 4 4 5 3 1 1 4 5 5 8 6 9 7 15 13
22 23 23 26 27 27 25 26 28 27 25 18 5 4 4 1 2 3 3 5 6 5 5 9 5 8 2 2 2 2 2 4 2 4 5 2 4 3 3 4 1 3 3 5 4 4 3 3 2 3 3 7 8 8 6 5 5 6 8 7 6 8 4 5 6 4 5 5 9 8 8 9 8 9 8 9 7 5 3 5 6 8 3 4 8 11 13
21 22 23 25 26 26 26 26 27 27 27 18 4 2 4 4 3 4 4 1 6 6 5 9 7 9 10 4 7 7 8 9 7 5 3 2 5 6 2 6 6 1 2 3 4 1 5 2 3 2 2 2 7 7 8 7 5 6 7 4 3 6 4 11 9 10 8 7 7 8 8 6 8 9 10 10 11 10 9 9 9 9 8 8 11 15 13
21 22 23 24 26 26 26 27 26 27 28 14 7 8 4 4 3 4 3 6 6 6 3 6 8 8 11 3 9 7 9 11 8 8 8 3 7 7 7 8 8 8 6 4 5 6 7 5 3 4 3 5 4 4 3 4 5 4 6 3 1 4 4 10 11 7 5 4 5 5 7 6 4 5 5 6 6 9 8 8 8 6 10 9 11 13 10
21 21 23 23 26 24 26 25 25 27 25 6 8 6 6 2 2 3 3 6 6 5 6 5 7 5 7 8 8 8 11 10 7 10 10 11 8 8 7 5 6 9 11 11 10 7 5 5 6 4 5 3 4 3 3 3 4 5 7 6 5 2 4 8 7 6 5 4 1 4 2 4 6 7 4 5 5 3 5 4 5 4 5 8 9 7 6
20 21 22 23 25 25 25 25 25 25 22 5 5 7 2 2 1 3 4 4 4 5 6 6 3 7 5 5 6 7 11 8 4 3 9 11 11 10 9 7 3 8 10 11 9 8 6 5 5 4 3 3 4 5 6 5 1 3 4 3 6 7 7 7 6 8 6 8 4 3 2 3 4 10 2 4 5 6 7 5 6 5 5 2 1 6 8
20 20 22 22 24 25 25 25 23 22 13 8 6 5 4 4 3 1 4 4 5 6 6 7 8 2 2 4 3 7 7 12 11 7 4 9 12 13 9 9 4 7 9 8 8 7 7 6 5 3 2 1 4 4 4 7 7 5 1 6 3 5 8 6 8 6 3 8 7 6 4 9 7 4 0 2 3 5 5 4 4 5 4 3 6 10 9
21 21 21 22 23 25 24 23 22 20 14 5 4 3 3 3 4 4 2 5 5 6 8 7 6 5 6 3 2 4 6 10 9 9 7 7 9 12 13 13 10 4 8 8 6 3 2 3 2 2 3 5 6 5 5 7 6 4 4 1 4 5 5 4 4 7 4 7 8 6 9 7 6 2 4 3 4 9 13 9 7 7 7 10 12 11 10
20 20 21 22 22 23 24 23 22 21 18 7 5 5 4 2 4 4 4 4 6 5 6 7 6 8 7 6 4 4 3 2 4 4 3 7 10 11 9 7 8 7 10 9 6 3 4 4 4 3 6 4 3 3 6 7 7 5 4 3 4 6 6 3 2 1 4 5 7 6 3 5 1 4 4 5 8 12 14 11 8 6 7 8 10 10 11
20 20 21 21 22 22 23 23 22 22 20 12 4 5 4 4 4 2 1 2 5 6 3 4 8 10 10 9 5 3 3 4 3 1 3 3 4 7 7 7 7 8 7 5 5 5 4 4 3 4 6 6 5 5 4 7 8 5 5 5 2 6 5 5 5 3 6 5 9 2 4 5 5 4 6 3 4 5 2 3 4 4 3 7 11 12 12
20 20 21 21 21 21 22 22 23 22 20 17 3 4 6 6 5 4 2 1 8 8 9 6 7 7 7 9 9 3 3 4 0 3 4 5 1 3 4 9 8 8 6 6 2 1 1 1 4 6 6 6 7 5 5 4 4 6 3 3 2 0 4 4 6 3 3 5 7 3 4 6 5 4 5 3 2 4 3 6 6 4 4 7 11 12 12
19 20 20 21 21 21 22 22 22 21 20 19 3 4 6 6 3 3 3 2 1 6 8 6 5 5 5 7 9 9 5 3 4 3 2 4 8 6 5 9 6 8 6 3 2 2 0 2 2 4 5 2 2 2 1 4 3 5 3 3 4 4 4 2 4 2 4 6 7 7 7 2 3 7 5 3 1 4 3 3 5 5 5 5 9 10 10
19 19 20 20 20 21 21 21 22 21 19 18 6 5 6 8 5 4 5 8 9 8 6 6 4 4 4 7 7 8 7 4 7 3 2 4 8 9 8 10 4 6 9 4 2 1 1 1 3 4 3 3 2 1 1 0 2 3 6 5 6 2 0 1 1 1 1 5 8 6 2 3 2 2 2 4 3 1 4 5 5 10 6 5 7 8 7
18 18 19 20 20 20 21 21 21 21 20 19 7 5 5 7 6 5 2 5 7 9 8 9 10 8 9 7 7 6 4 5 3 1 3 3 5 8 9 9 7 6 9 1 2 1 2 1 1 1 0 4 2 3 2 2 3 3 3 3 1 2 1 3 8 6 2 2 3 1 2 3 2 3 4 4 2 3 5 6 8 10 9 7 7 8 5
17 17 18 18 19 19 20 20 20 20 20 20 10 2 6 8 8 7 3 6 6 7 7 6 7 10 3 2 5 3 3 3 6 3 4 0 4 9 6 3 4 5 7 3 3 2 2 3 1 2 0 3 1 2 1 1 3 2 2 2 3 2 0 1 1 6 8 8 8 5 4 3 3 1 2 1 2 4 3 6 7 11 11 8 8 9 8
16 17 17 17 18 19 19 19 20 20 20 20 11 4 2 6 6 7 5 7 6 8 7 8 8 12 9 11 9 9 7 6 8 6 7 6 8 9 5 2 5 7 4 4 3 3 2 3 3 1 1 2 4 2 3 4 4 5 3 2 3 4 3 2 2 1 1 2 4 2 6 4 3 3 4 1 5 4 6 9 10 9 10 9 9 8 8
16 16 16 16 18 18 18 19 19 19 20 20 13 3 4 5 6 6 5 4 4 5 7 5 5 10 9 11 10 9 10 9 9 7 6 7 9 6 3 4 7 5 5 4 4 3 2 2 3 2 2 3 3 3 2 4 5 5 5 4 5 6 3 1 2 5 4 6 6 1 5 3 3 5 1 6 8 7 8 9 10 8 7 7 7 8 7
15 15 15 16 17 18 17 18 18 19 20 19 16 4 3 5 4 4 4 4 5 5 5 4 3 4 6 6 6 6 7 9 8 7 6 5 7 8 4 3 7 6 4 4 0 2 1 1 0 0 1 2 1 1 1 3 2 4 4 4 2 8 5 4 1 3 3 4 4 4 3 4 5 8 10 10 9 7 7 7 8 8 6 5 7 7 7
15 14 14 15 17 17 17 17 17 17 18 19 13 4 5 5 5 6 5 4 3 2 1 3 3 3 4 4 3 4 4 3 5 5 7 6 3 6 7 5 6 4 3 5 5 4 4 3 3 3 2 4 3 2 1 2 2 2 1 6 6 3 4 2 4 6 9 9 8 6 6 7 8 8 9 10 10 9 8 8 8 8 8 6 6 6 6
15 14 14 15 16 17 16 16 16 16 17 17 11 5 4 5 5 5 1 2 0 4 4 3 1 5 7 8 6 4 2 4 6 5 4 6 4 2 4 6 3 1 3 5 2 5 3 3 3 3 3 4 5 2 1 2 3 3 3 4 4 4 0 1 4 7 3 4 6 8 9 8 9 9 9 10 9 9 8 9 8 7 7 7 6 6 5
15 13 13 14 15 16 16 16 15 15 15 16 11 1 2 3 5 6 4 1 1 1 3 3 6 4 4 3 3 2 6 4 3 4 4 6 8 6 6 5 5 5 6 4 1 3 0 1 2 1 3 3 6 1 3 2 3 4 1 3 4 6 0 4 5 3 0 7 8 8 7 6 5 6 6 7 8 8 8 7 7 6 6 5 5 4 4
13 14 12 12 14 15 15 14 14 13 13 14 11 6 7 6 7 4 2 2 1 1 1 3 5 3 1 1 6 6 5 5 4 4 6 5 4 5 3 2 1 1 1 2 3 2 1 1 1 2 1 3 5 2 3 5 3 1 3 4 5 4 4 1 1 4 7 9 8 7 8 7 5 5 5 6 6 7 7 7 7 6 6 5 5 5 4
13 13 12 12 13 14 14 13 13 12 11 10 5 4 4 5 6 8 5 4 3 2 1 3 3 4 3 7 4 3 3 4 3 3 4 4 4 1 0 2 2 1 1 2 3 1 1 2 3 4 5 4 3 4 2 2 0 1 2 4 1 4 2 3 3 5 5 5 8 10 5 6 7 6 6 6 6 6 6 4 4 3 3 3 3 4 4
12 12 12 12 13 13 13 13 12 10 9 8 3 1 3 5 5 5 5 5 4 2 1 3 3 5 0 5 5 3 5 4 3 4 4 4 4 4 4 5 4 4 3 2 2 1 2 2 4 1 1 2 2 3 2 3 2 2 2 3 3 3 3 3 2 2 1 6 11 4 4 5 7 8 7 5 4 4 3 3 2 3 2 2 2 2 3
12 12 12 12 13 13 13 12 12 9 8 7 2 2 2 3 3 4 5 4 4 3 1 3 2 3 0 5 4 3 4 4 4 3 3 3 5 5 5 6 5 4 2 2 1 2 3 4 2 3 3 4 4 1 3 2 1 1 4 4 2 5 5 5 6 7 8 5 8 4 2 4 7 7 6 5 3 2 3 3 3 3 3 3 2 3 3
13 13 12 12 13 12 12 11 11 8 7 4 3 3 3 4 3 5 6 5 4 4 1 2 2 3 1 1 2 5 6 5 4 5 4 4 4 4 4 3 4 3 4 3 2 2 2 2 2 3 2 2 3 1 1 1 1 3 4 4 5 5 5 6 6 4 6 5 6 6 7 7 7 6 5 4 3 1 2 2 2 1 2 2 2 2 3
14 13 13 13 13 12 11 11 9 6 5 3 4 1 1 1 4 4 7 5 4 4 1 2 2 2 2 2 1 6 6 5 5 4 4 3 3 3 2 2 2 4 1 1 1 3 1 1 1 3 2 4 3 1 0 0 0 4 5 5 5 5 5 6 6 6 6 7 7 7 6 6 4 4 4 3 3 2 2 0 2 3 4 1 2 2 1
14 14 14 14 12 12 10 10 7 6 4 3 3 3 4 4 5 7 7 5 4 4 2 1 2 2 1 2 2 3 5 2 2 1 3 3 1 2 2 4 3 4 3 2 2 1 2 2 1 1 1 3 3 1 1 0 1 2 5 5 5 5 6 6 6 6 6 6 6 5 5 4 4 2 2 4 2 1 1 0 1 4 4 2 2 1 1
16 15 15 13 12 11 9 7 2 4 2 4 5 9 8 5 7 6 4 5 4 1 2 1 1 1 1 4 1 3 5 4 1 3 3 4 4 3 1 1 1 1 2 3 0 1 1 0 0 1 4 1 2 1 2 0 3 3 3 6 6 5 5 5 5 5 5 4 0 1 2 3 4 3 2 3 3 2 1 2 4 3 3 3 2 1 0
16 16 15 13 10 7 5 1 6 5 4 3 3 2 5 11 5 2 5 3 1 0 2 0 2 2 2 2 2 5 6 4 4 5 1 4 3 3 2 1 1 0 3 3 2 1 2 2 1 1 2 1 1 1 1 1 2 3 4 5 6 6 5 6 5 5 5 4 2 3 3 3 3 4 3 3 3 2 2 3 4 5 4 2 2 1 1
17 15 13 10 6 1 6 7 5 4 1 2 2 3 6 10 7 6 5 3 2 1 0 0 1 1 2 1 1 4 4 4 4 4 3 3 2 4 2 2 1 1 3 2 2 1 0 2 3 3 1 1 1 1 2 0 4 4 4 6 7 6 6 6 5 5 5 4 3 3 3 3 4 4 3 3 3 3 4 4 4 4 4 3 1 2 2
16 14 10 5 3 7 5 5 1 2 3 1 3 6 10 9 4 2 2 2 3 1 0 1 1 1 0 2 2 2 2 1 2 1 2 2 2 1 3 2 0 4 1 2 2 1 0 3 2 1 2 2 2 2 1 1 1 2 4 5 7 7 6 5 5 6 5 4 3 3 3 4 4 2 2 3 3 4 5 5 5 4 4 2 2 2 2
14 11 5 3 5 4 1 2 2 3 3 4 7 12 12 8 2 3 3 2 2 2 2 0 1 3 4 3 1 2 4 1 3 1 3 3 3 1 3 2 2 2 2 2 0 1 3 1 3 3 2 3 0 2 3 2 3 3 2 3 5 5 5 4 7 7 7 6 6 5 5 5 4 3 3 3 4 5 6 6 5 5 5 4 3 3 3
11 8 4 4 3 2 2 2 2 4 7 8 6 4 3 4 1 2 1 1 1 3 1 2 2 2 0 4 1 3 4 2 1 3 1 2 2 1 1 1 2 2 2 2 2 3 2 2 2 3 3 2 3 2 3 3 2 2 3 2 4 6 5 7 9 8 7 7 6 6 6 6 4 4 4 4 5 6 4 5 4 4 3 3 3 3 3
6 2 2 0 1 1 1 3 3 6 5 2 3 2 1 0 1 1 1 0 1 1 1 1 3 1 1 2 4 4 4 3 3 1 3 4 3 1 1 3 2 2 1 2 2 2 2 2 1 2 3 1 2 4 3 3 2 1 1 2 4 6 7 8 8 6 5 3 1 5 6 5 5 5 5 5 5 5 5 5 4 4 3 3 3 3 3
1 1 1 0 1 2 2 1 1 3 3 1 1 1 1 0 1 3 0 2 3 2 1 2 3 3 4 4 4 2 2 3 4 3 4 1 2 4 1 1 2 2 2 2 2 1 3 2 0 2 3 0 2 4 4 3 3 1 1 3 5 7 8 8 7 4 3 3 3 3 4 4 3 3 5 6 6 4 5 4 4 3 3 2 1 3 2
4 1 0 1 3 2 2 3 2 2 1 1 1 0 0 1 2 1 1 2 2 2 2 2 2 3 2 0 2 2 4 1 1 1 3 2 2 2 2 1 1 2 2 1 2 1 2 2 2 3 2 3 3 4 5 3 2 1 1 2 5 6 8 8 6 5 5 5 4 3 3 3 4 4 4 6 6 5 3 1 2 3 3 3 3 3 2
4 3 3 2 2 3 3 2 1 1 1 0 0 2 1 1 1 1 1 1 3 0 3 2 1 3 3 4 3 3 2 1 1 1 2 1 1 2 2 1 0 2 2 2 1 2 2 3 3 3 1 2 3 3 4 5 4 2 2 3 5 6 8 7 6 5 5 4 4 3 3 4 5 5 5 6 6 6 6 6 6 5 4 2 2 2 2
2 4 2 1 2 1 1 1 2 1 0 1 1 2 0 1 1 1 2 2 0 1 3 1 1 1 2 3 3 1 2 1 2 1 2 1 1 1 2 1 1 3 1 0 2 3 3 3 4 2 2 2 4 4 4 5 4 1 2 2 3 5 7 7 6 6 5 4 4 4 4 4 5 5 5 6 6 6 6 5 4 3 2 2 2 2 2
2 2 2 1 1 1 1 1 0 0 2 0 0 2 2 3 3 2 2 2 0 2 2 2 3 4 1 2 4 1 2 3 1 2 1 0 2 1 1 3 3 2 1 3 2 4 4 3 4 4 4 2 2 2 4 5 4 1 3 4 4 5 6 6 5 5 5 4 3 3 4 4 5 5 5 5 5 6 6 5 5 3 2 3 3 2 1
2 1 1 1 0 0 0 2 1 0 1 2 0 1 1 3 3 1 3 2 2 2 1 1 2 2 3 2 2 1 1 2 1 2 2 1 3 2 3 3 2 2 3 4 4 3 2 3 0 2 1 1 2 4 4 4 4 3 3 6 7 7 7 7 7 6 6 6 6 5 5 5 5 6 6 6 5 5 5 5 5 4 4 3 2 3 2
0 0 1 1 1 2 0 2 1 2 1 0 1 1 2 4 2 4 3 0 1 0 2 2 2 3 3 1 2 3 1 2 3 1 1 2 3 4 1 1 1 4 3 4 4 4 4 3 2 1 3 3 2 2 2 3 3 2 4 7 8 9 9 8 7 6 5 5 5 5 6 6 6 6 6 6 6 6 6 5 4 4 3 3 3 3 2
1 0 0 0 1 1 1 1 1 1 2 3 3 3 3 3 3 2 2 0 1 2 2 1 3 3 4 3 2 2 1 1 3 1 1 4 3 1 0 3 4 3 4 5 5 5 3 1 1 1 1 1 1 3 3 3 3 3 3 4 6 9 9 8 7 7 6 6 6 6 5 6 6 6 6 6 6 6 6 6 6 5 4 4 3 2 2
0 0 1 1 2 1 2 2 2 3 2 3 3 3 3 0 2 3 3 0 2 2 2 2 2 1 2 2 2 3 4 2 3 2 1 3 1 3 2 3 4 3 3 5 5 2 2 2 2 1 0 1 2 5 5 4 4 4 3 3 5 6 8 8 8 7 6 7 6 6 5 5 5 6 6 6 6 6 6 6 6 5 5 5 4 3 3
1 1 0 1 0 0 1 3 3 4 4 3 2 2 2 2 1 3 2 0 1 1 2 3 2 2 3 1 3 3 3 1 3 1 1 2 2 3 2 4 4 6 4 4 5 4 3 3 3 1 3 4 4 5 6 5 4 5 4 4 3 5 7 8 8 7 7 6 6 6 5 5 5 5 5 6 6 6 6 6 6 6 5 5 4 4 4
1 1 1 1 2 1 2 2 3 2 4 3 3 2 2 2 1 2 1 1 1 2 1 2 1 3 2 2 3 2 4 2 3 2 3 5 5 4 4 6 6 5 4 3 3 3 4 3 4 4 5 6 7 7 7 6 2 5 5 3 3 3 5 7 7 7 7 7 7 6 6 5 6 5 6 6 5 5 5 6 7 7 6 5 5 4 4
0 1 1 1 2 2 5 3 3 3 2 3 2 1 2 2 2 0 2 2 2 3 3 4 2 2 2 2 2 3 1 0 3 5 4 5 2 3 6 7 6 4 4 4 4 4 4 5 4 4 5 8 8 9 7 7 7 7 7 5 3 3 4 6 7 7 8 8 8 7 7 7 6 6 5 5 5 5 6 6 7 7 7 6 5 5 5
1 1 1 1 0 1 1 1 1 1 2 1 1 1 1 3 2 0 1 3 3 4 4 1 2 2 2 4 3 2 1 2 4 3 6 6 4 6 6 6 6 6 5 6 7 5 5 5 5 5 7 6 9 9 9 9 8 8 8 8 6 5 4 4 5 7 7 7 8 8 8 8 7 6 5 5 6 6 6 6 6 8 8 7 6 6 5
Wind_Direction
351 349 351 350 347 345 343 341 341 344 343 340 359 299 282 30 55 66 9 140 241 276 255 214 224 224 234 17 260 248 233 244 221 234 178 225 223 254 235 245 242 240 257 262 265 258 255 259 234 213 219 143 61 103 137 116 114 323 110 90 55 262 239 220 236 213 141 151 121 22 314 284 223 216 281 240 233 228 242 247 222 209 192 221 211 234 124
351 348 351 352 349 346 343 342 342 345 353 326 301 287 20 24 43 68 30 10 223 273 272 226 207 223 207 238 246 183 259 234 216 227 195 258 182 234 231 216 234 290 213 254 257 193 256 223 257 226 222 132 76 89 177 133 94 344 48 310 104 179 16 298 218 222 202 199 192 189 140 223 235 226 142 340 325 266 37 82 196 242 216 233 230 233 140
351 349 350 353 351 347 344 342 341 345 348 340 287 327 343 257 172 72 45 24 4 322 2 316 298 258 238 247 214 205 200 64 332 286 109 319 322 266 225 335 28 235 226 257 253 243 267 285 125 352 171 99 112 67 3 220 129 109 93 75 80 76 349 304 234 217 213 213 207 211 197 197 116 89 131 65 242 194 201 223 212 242 190 222 234 208 80
352 350 352 355 353 350 347 343 342 345 348 342 267 323 275 8 351 10 77 42 59 72 31 347 303 280 235 215 339 283 214 144 63 280 98 19 70 3 328 229 259 247 212 223 228 214 187 252 124 208 164 138 95 43 102 186 138 128 120 104 85 71 53 14 5 347 1 5 8 28 322 150 175 124 112 89 175 289 275 263 238 230 179 215 225 191 138
353 352 353 357 356 352 349 346 343 344 345 347 300 345 349 48 28 349 0 300 50 38 33 12 350 317 309 236 360 251 238 219 126 0 218 54 8 72 23 343 234 216 224 218 196 199 190 184 190 68 130 90 105 101 99 91 100 121 117 116 87 110 77 11 37 55 54 39 33 32 13 113 72 115 80 69 67 209 252 244 263 322 239 230 120 135 133
355 355 354 359 358 355 352 350 346 344 342 340 291 21 350 45 46 6 14 340 13 348 26 12 20 18 317 78 309 38 117 81 71 54 60 87 33 277 106 24 349 263 243 212 198 159 158 126 113 135 125 136 138 129 120 114 118 163 133 149 157 152 145 185 129 94 84 50 43 42 63 62 75 70 67 63 60 85 100 37 4 334 273 263 122 125 109
358 356 354 359 360 358 356 354 349 346 340 330 316 42 65 57 89 61 299 315 48 31 343 339 36 39 11 71 31 62 61 63 45 15 335 72 46 7 82 31 31 73 189 255 146 99 186 125 79 50 108 110 169 139 130 98 146 176 144 149 131 160 158 163 154 137 123 81 54 39 52 64 72 66 63 60 62 66 72 68 53 51 67 78 109 96 90
358 356 355 359 2 2 0 357 354 347 340 322 56 30 359 41 333 80 76 74 69 38 0 348 27 49 355 38 25 43 56 59 48 37 18 60 43 15 77 51 53 61 74 76 91 50 31 49 105 53 338 133 13 100 28 117 131 153 145 143 22 278 155 173 157 151 139 109 113 74 39 24 48 25 26 37 55 69 58 67 50 78 82 88 99 94 89
359 356 355 358 3 3 4 2 359 350 340 45 38 57 18 37 1 321 332 67 28 59 16 12 33 39 6 24 12 34 38 43 42 66 44 43 29 8 19 22 62 70 74 71 68 35 20 24 47 16 4 54 18 329 102 345 157 151 161 180 165 204 142 185 186 202 186 185 115 92 58 23 337 318 355 13 19 50 33 32 3 357 110 123 124 105 99
0 357 356 357 3 5 6 6 3 357 333 23 20 45 13 244 177 261 293 64 349 55 68 50 35 43 5 354 355 14 13 30 34 86 43 41 31 12 351 337 327 65 55 42 17 347 333 347 350 359 9 11 47 56 52 26 45 172 162 159 186 184 151 181 195 223 214 165 149 147 66 326 288 248 110 70 81 97 94 62 36 25 339 181 159 92 115
1 358 357 356 1 5 7 8 8 2 356 28 15 32 8 358 347 266 266 67 48 38 57 50 57 67 316 17 334 9 13 27 27 42 42 13 15 9 9 15 18 67 38 351 334 313 304 307 307 279 255 143 113 101 94 69 47 37 121 176 195 174 179 192 188 229 167 140 140 130 182 227 235 57 266 14 116 153 116 64 25 23 358 56 74 110 118
360 358 356 356 358 4 6 8 7 9 359 358 324 26 7 305 267 278 333 75 66 55 60 52 31 30 28 63 70 23 19 17 22 23 39 349 4 7 15 20 12 61 359 331 318 305 257 253 225 166 147 134 127 126 102 80 72 37 29 192 176 195 192 231 200 229 180 143 135 179 216 222 49 275 115 150 102 106 103 91 61 70 88 107 109 116 115
1 358 357 356 357 1 5 7 7 8 2 344 359 26 11 319 307 7 37 62 60 31 60 56 43 37 31 47 74 90 91 6 321 336 16 3 7 16 19 5 349 341 329 319 314 217 203 165 147 141 134 137 133 88 71 67 64 69 51 23 175 162 179 96 11 306 99 173 177 194 207 54 55 88 117 117 127 122 110 83 71 69 107 117 111 111 111
2 1 358 356 357 360 3 4 5 5 2 348 1 19 4 331 325 19 14 62 69 47 343 65 32 24 18 26 16 103 140 149 173 263 52 68 35 353 351 356 334 309 310 304 267 219 208 184 177 186 194 198 179 212 119 73 47 30 29 31 354 180 155 182 185 186 219 212 210 230 94 158 111 126 135 178 150 181 234 136 94 70 87 133 123 120 121
1 1 360 358 357 357 0 2 3 3 359 349 325 20 21 4 343 351 341 53 89 61 32 43 6 355 14 25 9 39 67 33 290 145 127 185 83 33 342 339 331 326 307 288 285 216 263 200 205 208 192 200 211 200 160 183 90 50 52 43 34 289 223 183 207 190 242 228 202 178 198 232 154 112 114 31 9 356 329 105 104 110 93 126 132 130 129
359 0 360 359 358 357 359 360 1 0 1 347 330 28 40 4 302 293 354 354 317 56 32 20 352 335 8 29 24 27 12 5 359 269 158 68 25 14 11 352 342 324 329 286 340 325 335 246 232 235 234 220 52 96 182 130 136 88 75 124 93 53 47 98 238 173 193 234 233 218 224 88 63 115 131 73 41 273 306 217 132 138 129 133 140 133 138
359 359 359 359 359 357 358 359 358 358 359 356 348 24 31 4 344 332 43 72 74 80 45 11 311 294 24 40 31 30 11 14 355 354 8 16 5 355 0 351 347 3 356 310 355 275 198 196 248 245 103 2 251 80 94 349 149 119 113 123 116 162 182 200 213 166 209 240 226 223 39 90 100 79 24 20 356 167 252 214 172 150 147 132 143 136 136
358 359 358 359 359 358 358 359 358 356 357 354 344 23 29 3 354 307 23 75 86 78 49 26 33 53 46 27 36 20 346 12 1 292 315 23 9 8 347 358 359 45 346 19 344 91 63 19 81 270 248 52 337 270 253 50 72 359 24 357 54 105 144 213 227 225 187 213 238 21 138 92 80 18 1 21 269 255 202 231 112 142 130 125 114 110 102
359 359 359 1 360 359 359 359 358 356 356 354 336 227 41 1 351 326 53 72 77 83 63 45 53 57 22 262 42 24 54 334 344 360 352 56 33 337 318 343 302 359 359 33 23 48 45 100 46 351 4 116 153 55 3 91 36 40 311 199 143 97 54 155 239 226 214 208 221 218 73 48 47 93 33 301 190 180 228 74 122 121 123 112 104 93 79
359 360 360 0 1 1 359 359 358 356 355 357 347 53 24 10 7 4 17 76 75 81 61 46 22 50 38 37 32 27 22 33 10 17 21 11 354 323 225 179 49 352 20 351 72 10 9 63 39 335 289 90 59 346 100 89 46 19 36 7 347 25 302 239 189 61 26 203 217 197 236 93 345 23 150 42 265 70 104 125 111 113 106 104 89 80 76
358 358 358 0 2 2 1 0 359 356 355 353 349 324 66 31 10 4 348 345 76 87 81 49 34 51 36 44 31 26 29 26 12 8 24 25 349 310 35 21 351 357 20 358 25 46 358 41 57 53 25 345 106 229 98 115 100 66 3 40 52 8 283 179 89 1 262 213 212 239 34 92 40 308 136 73 74 112 118 116 116 108 109 99 95 73 64
357 356 356 357 1 2 1 2 359 357 355 352 338 302 63 28 13 358 316 318 50 70 66 43 5 41 53 46 35 15 14 19 22 349 346 32 29 39 68 44 24 12 22 322 254 136 132 63 251 5 148 131 189 33 80 229 147 101 67 322 190 22 34 359 17 49 10 26 62 94 110 78 74 73 88 92 98 108 111 104 110 122 98 83 88 84 69
357 355 354 355 358 360 0 1 0 358 356 355 347 33 35 3 3 339 290 88 100 113 159 149 196 148 138 99 57 15 16 7 342 357 358 338 58 37 35 17 50 4 355 350 358 10 27 333 71 350 65 18 9 113 163 328 94 93 78 37 61 69 29 9 91 87 93 73 73 96 112 103 93 91 93 93 90 82 91 98 97 70 63 58 74 75 67
357 355 353 353 355 357 358 360 1 358 356 355 349 11 41 18 354 328 196 58 43 107 96 44 101 48 18 29 21 21 34 34 9 344 313 308 360 89 86 44 341 241 47 36 335 338 23 356 34 319 73 40 305 251 218 125 47 51 117 126 88 54 174 193 110 135 190 90 115 107 110 117 102 92 81 70 68 71 71 76 76 81 78 77 72 74 74
356 355 352 351 353 354 356 357 359 358 355 354 339 195 280 31 12 346 319 186 131 239 84 86 59 24 17 355 309 42 41 348 306 324 344 23 23 21 40 32 4 0 28 6 286 264 280 288 165 163 84 44 314 90 8 263 125 326 233 106 173 110 328 101 110 135 64 122 133 122 102 111 120 111 96 92 89 88 89 94 102 103 98 102 111 125 96
354 352 353 351 351 351 352 354 355 358 353 350 337 24 42 30 350 317 287 42 22 325 113 83 95 94 318 129 49 20 337 335 353 19 36 25 7 0 53 162 155 235 342 355 290 338 22 57 32 26 72 95 311 314 65 13 59 10 325 63 14 67 241 106 157 111 100 115 136 140 137 130 136 145 101 109 115 111 112 111 116 118 106 101 86 63 56
350 348 349 349 348 347 348 350 351 351 350 344 331 25 35 50 20 27 22 345 294 151 162 98 93 96 60 69 44 354 17 345 347 16 44 29 21 63 230 3 27 158 230 111 40 342 77 54 32 60 35 69 338 45 16 168 158 154 120 89 139 228 134 102 181 149 168 161 154 166 161 163 150 147 131 117 107 109 107 106 88 84 81 70 75 80 72
343 345 344 345 343 343 342 344 348 346 344 328 287 352 26 43 37 26 12 357 328 356 77 128 135 93 177 88 34 30 18 357 357 9 26 42 41 44 40 41 28 29 22 334 132 65 31 67 79 87 104 71 263 110 23 81 251 219 171 98 341 305 77 231 228 275 153 101 137 145 30 57 125 140 134 134 112 119 129 104 94 92 85 69 45 94 121
341 340 340 341 340 338 338 339 342 341 335 310 243 230 168 67 42 39 15 343 307 312 5 80 136 191 169 56 342 33 48 17 21 14 44 59 54 47 48 39 38 31 61 62 66 61 59 72 15 23 33 11 308 127 200 205 212 207 80 83 73 51 31 29 38 71 73 100 130 77 31 104 124 130 131 134 136 94 87 78 68 59 55 55 63 59 40
339 338 336 336 334 334 333 334 335 338 322 283 225 225 208 145 57 27 10 348 347 313 263 201 166 84 131 243 46 33 34 34 43 47 44 52 49 35 29 26 52 20 33 20 336 57 54 70 86 90 68 296 295 17 279 194 199 106 107 103 93 99 65 47 26 25 89 99 103 81 87 93 104 115 113 113 117 11 40 63 57 57 82 42 73 70 49
337 335 332 330 330 329 326 328 329 327 290 255 242 254 272 123 80 52 4 340 337 300 320 282 79 122 151 88 317 10 7 20 31 50 50 39 44 30 46 272 72 329 335 99 48 62 279 78 80 110 139 32 327 276 191 175 221 137 142 130 123 113 91 72 56 70 96 105 101 91 91 102 114 120 124 121 122 150 137 311 66 6 34 97 74 51 350
332 331 328 327 326 324 321 318 320 282 272 300 337 3 24 10 348 332 326 310 299 255 254 201 157 194 91 144 73 7 340 349 303 159 91 338 51 15 48 358 39 24 356 11 63 204 59 38 326 43 16 47 293 326 289 301 109 102 147 155 134 113 107 113 106 101 104 118 130 128 127 131 167 262 86 157 164 153 269 146 261 130 165 225 81 75 27
329 328 326 324 324 320 319 312 264 291 69 83 95 119 97 14 326 297 310 297 248 3 315 280 64 96 212 70 145 63 343 244 97 343 95 18 9 313 108 61 141 133 70 265 128 33 65 292 305 174 90 262 270 272 281 114 105 84 170 163 150 138 125 116 123 123 125 126 167 287 150 151 168 140 119 161 178 184 219 235 176 170 170 172 183 208 219
326 326 323 322 318 320 332 99 135 127 151 197 155 91 34 8 333 14 313 285 337 88 270 309 159 184 99 175 187 72 339 348 55 343 51 73 2 280 23 251 71 250 36 332 71 212 157 248 292 57 179 153 293 284 257 97 105 139 162 176 157 150 146 145 146 147 141 130 98 56 59 72 106 121 149 176 186 222 252 208 169 185 187 202 219 248 336
325 323 323 319 322 128 141 150 160 209 192 117 87 70 1 352 332 297 303 315 252 150 166 108 301 157 141 149 106 76 343 298 25 17 347 61 28 356 342 284 158 257 82 310 237 301 326 56 5 259 138 73 236 252 253 182 156 155 162 171 171 173 169 170 166 159 148 141 153 134 133 149 151 171 188 197 209 196 187 191 184 200 207 216 242 265 268
325 325 324 328 146 163 166 216 248 176 162 88 54 9 344 325 296 281 327 359 336 338 166 94 261 100 141 145 91 82 302 160 35 261 54 297 166 73 319 316 279 86 330 292 309 257 262 59 267 252 93 250 233 243 346 37 303 209 200 190 181 191 193 192 161 159 153 159 163 148 160 169 193 198 208 211 222 190 195 190 186 207 221 244 251 285 288
326 323 304 217 195 191 125 71 59 16 33 337 319 316 298 291 206 227 221 216 116 326 330 211 187 77 353 56 92 79 292 52 357 283 48 5 14 26 330 299 33 17 242 211 192 350 64 315 279 277 232 259 308 45 12 350 319 301 255 221 187 191 182 156 151 151 152 164 175 183 189 200 214 221 217 220 204 190 196 203 199 201 218 232 258 282 308
326 292 233 179 189 165 142 124 61 16 317 286 270 249 178 216 175 149 167 158 42 283 89 281 78 78 157 280 68 38 284 73 321 342 84 42 280 102 330 320 45 311 318 348 58 13 304 240 267 301 300 302 351 30 19 355 327 299 280 235 191 190 182 155 154 159 160 168 186 196 197 211 227 217 224 213 200 192 200 214 206 214 230 245 268 289 296
286 216 162 53 250 77 37 63 25 330 283 232 238 249 133 357 206 150 64 47 212 136 37 309 74 9 307 253 101 72 358 333 303 341 347 60 326 46 6 327 99 281 290 243 120 286 259 185 209 269 259 152 197 85 4 339 309 273 259 228 198 182 174 170 173 179 189 209 228 189 204 206 222 221 216 214 195 193 196 206 213 213 229 254 271 285 292
44 35 29 357 55 46 357 56 187 271 228 215 154 282 115 239 265 104 233 166 117 70 281 101 34 26 10 357 334 103 46 306 331 359 346 70 103 326 28 281 57 284 291 310 76 338 294 308 111 273 275 182 102 48 1 351 322 24 219 199 195 183 176 176 179 182 182 132 128 153 183 222 256 228 200 209 192 188 202 200 206 226 248 270 12 304 280
23 39 297 41 34 345 346 322 278 235 239 175 146 72 283 108 47 13 263 127 75 75 356 4 192 166 109 295 290 343 97 278 53 313 284 325 67 266 281 336 39 286 270 289 85 266 270 279 276 283 313 21 11 18 355 0 14 42 146 177 174 176 174 172 173 169 172 160 162 164 188 207 204 223 211 188 185 183 156 145 239 238 247 253 221 235 251
344 340 11 315 296 281 272 213 233 170 95 293 72 68 23 54 185 158 338 24 82 128 104 331 65 13 47 0 21 316 114 18 309 273 294 297 104 305 328 331 206 281 307 52 341 257 267 280 287 291 9 59 39 9 0 2 23 28 123 152 162 172 172 174 173 179 194 188 180 180 172 197 198 195 190 188 188 178 175 188 206 217 228 237 282 274 238
254 219 229 250 234 206 259 173 60 305 97 98 118 91 136 127 27 28 97 97 126 275 76 206 77 206 141 240 199 202 1 34 282 271 284 342 119 227 294 299 233 268 334 38 275 298 280 279 276 291 23 25 48 16 11 360 6 21 113 152 167 181 180 181 186 185 191 197 185 187 179 188 193 189 184 185 186 186 196 204 215 224 228 272 287 293 254
124 186 201 217 216 84 254 98 27 136 82 12 228 127 159 138 148 174 179 105 163 136 44 343 33 318 4 101 326 13 188 183 213 280 277 88 277 302 266 265 278 45 86 265 276 284 304 308 293 307 349 13 51 26 17 1 358 304 187 173 176 181 188 194 189 182 182 187 192 186 188 186 184 177 185 193 195 203 205 204 203 218 258 278 272 265 248
222 185 195 175 49 25 254 80 267 220 84 104 320 101 154 134 128 140 86 83 286 49 46 304 316 309 310 47 238 181 314 331 108 272 305 315 292 283 264 303 357 282 280 297 289 282 281 274 226 194 242 289 29 2 356 345 341 303 242 187 184 187 189 198 197 199 191 192 191 185 194 191 189 188 196 205 209 218 222 220 202 210 229 256 281 264 194
245 53 203 162 6 311 339 110 143 146 98 171 147 129 113 85 103 103 89 119 284 212 292 353 290 272 291 62 317 339 301 301 301 311 332 288 293 285 328 336 253 281 281 273 267 284 301 303 308 333 28 7 353 336 337 346 348 304 251 223 201 193 196 204 204 203 197 189 186 191 193 200 202 200 206 215 219 220 222 228 227 236 252 267 272 275 201
142 183 277 304 98 111 260 123 102 53 100 125 75 59 54 72 50 39 69 290 287 13 309 280 299 330 308 321 291 209 209 295 294 317 280 279 262 290 195 277 269 257 270 280 280 290 299 329 306 24 20 359 356 329 334 343 354 335 286 257 226 207 199 206 206 208 199 194 195 198 199 201 207 213 217 222 222 220 224 230 230 232 246 264 291 293 259
37 22 275 165 114 150 146 100 87 116 67 70 90 74 75 93 185 141 131 133 358 299 315 310 277 243 237 140 220 286 311 310 292 264 274 294 284 270 264 245 255 273 270 279 284 313 314 322 312 315 289 344 329 322 320 333 346 347 333 263 236 224 210 209 212 210 202 203 205 207 206 205 210 212 216 224 231 225 221 222 225 229 240 253 266 251 241
8 328 322 86 78 88 103 124 181 145 134 127 138 166 170 206 114 89 97 125 271 333 6 321 339 316 299 345 295 297 275 182 268 276 190 233 238 237 239 264 275 281 275 254 275 289 313 337 335 349 280 289 294 294 298 314 337 335 341 335 280 231 217 218 219 218 212 215 215 212 210 207 211 214 217 219 228 230 225 224 224 224 234 249 257 248 227
259 142 175 183 161 134 104 158 240 154 145 158 188 193 182 224 230 109 95 260 342 292 223 210 205 282 307 313 283 276 278 254 256 263 261 258 252 256 258 273 271 262 294 310 284 296 312 306 301 297 295 286 290 298 303 307 318 312 319 318 303 260 233 224 222 221 220 221 222 219 211 203 208 212 215 220 224 229 225 219 221 227 232 236 248 245 238
338 309 28 347 335 120 166 191 187 177 189 191 216 218 212 242 296 169 97 313 304 286 283 288 298 287 289 265 274 272 240 342 263 248 257 275 273 251 254 262 276 292 297 304 296 301 302 303 305 303 295 285 280 285 293 300 301 299 300 294 290 269 250 238 234 229 227 226 227 227 224 219 220 219 214 215 218 222 228 221 224 232 234 233 233 243 239
247 190 133 124 260 243 233 17 347 295 293 323 253 171 250 258 258 321 88 276 274 276 288 310 274 256 237 252 245 282 310 253 245 250 257 251 239 261 263 272 290 294 299 296 296 299 293 289 290 288 293 293 289 287 290 295 296 294 296 292 275 261 247 236 233 235 235 231 223 223 226 228 223 218 211 214 218 222 232 235 224 224 229 234 231 231 240